Regional Weather Roundup
Issued by NWS State College, PA

Current Version | Previous Version | Text Only | Print | Product List | Glossary On
Versions: 1 2 3 4 5 6 7 8 9 10 11 12 13 14 15 16 17 18 19 20 21 22 23 24 25 26 27 28 29 30 31 32 33 34 35 36 37 38 39 40 41 42 43 44 45 46 47 48 49 50
000
ASUS41 KCTP 241710
RWRCTP

REGIONAL WEATHER ROUNDUP
NATIONAL WEATHER SERVICE STATE COLLEGE PA
1200 PM EST TUE JAN 24 2017

Note: "fair" indicates few or no clouds below 12,000 feet with no
significant weather and/or obstructions to visibility.

* = STATION THAT DOES NOT REPORT PRECIPITATION /E.G. RAIN...SNOW...ETC/
    THUNDER OR FOG.

PAZ002>004-007>009-013>016-020>023-029>032-241800-
WESTERN PENNSYLVANIA

CITY           SKY/WX    TMP DP  RH WIND       PRES   REMARKS
ERIE           CLOUDY    34  31  88 N8        29.72S
MEADVILLE      CLOUDY    34  30  85 NW9       29.67F
FRANKLIN*        N/A     34  28  80 NW7       29.67F
NEW CASTLE     CLOUDY    36  33  89 NW9       29.70F
BEAVER COUNTY  CLOUDY    36  34  93 NW9       29.69F
BUTLER*        CLOUDY    36  30  80 NW9       29.69F
PITTSBURGH INT DRIZZLE   39  37  92 NW14      29.67F
PITTSBURGH     LGT RAIN  38  34  85 NW13G25   29.66S
INDIANA*       CLOUDY    36  36 100 W7        29.65S FOG
LATROBE        CLOUDY    37  37 100 W14       29.66S
WASHINGTON CO* CLOUDY    39  37  93 W7        29.69S
$$

PAZ004>006-010>012-017>019-024>028-033>037-041-042-045-046-049>053-241800-
CENTRAL PENNSYLVANIA

CITY           SKY/WX    TMP DP  RH WIND       PRES   REMARKS
BRADFORD       LGT SNOW  31  30  96 NW8       29.57F VSB 1
DUBOIS         CLOUDY    34  30  85 NW10      29.58S FOG
CLEARFIELD     LGT SNOW  35  33  92 N3        29.57F FOG
JOHNSTOWN      MIX PCPN  33  33 100 W14G24    29.55F VSB<1/4
ALTOONA        CLOUDY    37  33  85 NW13      29.56S
STATE COLLEGE  CLOUDY    36  32  87 NW5       29.56F
WILLIAMSPORT   CLOUDY    35  32  88 W10       29.53F
SELINSGROVE    FLURRIES  37  32  82 NW9       29.53F
FT INDIANTOWN  CLOUDY    39  35  86 VRB5G21   29.48F
CAPITAL CITY   CLOUDY    41  32  70 NW17G23   29.51F
HARRISBURG     CLOUDY    40  34  79 NW16      29.50F
YORK           CLOUDY    40  35  83 NW18G24   29.50F
$$

PAZ038>040-043-044-047-048-054-055-060>062-067>071-241800-
EASTERN PENNSYLVANIA

CITY           SKY/WX    TMP DP  RH WIND       PRES   REMARKS
SCRANTON       CLOUDY    37  32  82 N8        29.45F
MOUNT POCONO   CLOUDY    32  29  88 N13G20    29.38F
ALLENTOWN      CLOUDY    42  33  70 NW12      29.43F
QUAKERTOWN*    CLOUDY    39  36  87 N6G17     29.42F
READING        CLOUDY    43  36  76 N15       29.43F
LANCASTER      MOSUNNY   45  36  70 N14G24    29.46F
COATESVILLE    MOSUNNY   43  36  75 N14G21    29.43F
POTTSTOWN      CLOUDY    41  33  73 NW12      29.43F
BLUE BELL      CLOUDY    37  36  93 NW8       29.40F
DOYLESTOWN     CLOUDY    41  36  82 N10G24    29.38F
WILLOW GROVE   NOT AVBL
NORTH PHILA    CLOUDY    42  38  85 N17G26    29.40F
PHILADELPHIA   DRIZZLE   41  37  86 N18G26    29.41F FOG
$$



USA.gov is the U.S. government's official web portal to all federal, state and local government web resources and services.